Weather History for Olathe, KS

Change the Weather History Date:

Monday, February 3, 2014

  Actual Average Record
Temperature  
Mean Temperature 19 °F 32 °F  
Max Temperature 31 °F 41 °F 69 °F (1962)
Min Temperature 6 °F 22 °F -9 °F (2011)
Degree Days  
Heating Degree Days 46 33  
Month to date heating degree days 136 100  
Since 1 July heating degree days 3523 3148  
Cooling Degree Days 0 0  
Month to date cooling degree days 0 0  
Year to date cooling degree days 0 0  
Moisture  
Dew Point 11 °F    
Average Humidity 67    
Maximum Humidity 81    
Minimum Humidity 53    
Precipitation  
Precipitation 0.00 in 0.05 in 0.37 in (2012)
Month to date precipitation 0.25 0.15  
Year to date precipitation 0.28 1.27  
Sea Level Pressure  
Sea Level Pressure 30.31 in    
Wind  
Wind Speed 6 mph (ESE)    
Max Wind Speed 12 mph    
Max Gust Speed 14 mph    
Visibility 10 miles    
Events      
T = Trace of Precipitation, MM = Missing Value Source: NWS Daily Summary

Daily Weather History Graph

Daily Weather History Graph

Search for Another Location

Airport:

Trip Planner

Search our weather history database for the weather conditions in past years. The results will help you decide how hot, cold, wet, or windy it might be!

Date:

Astronomy

Feb. 03, 2014 Rise Set
Actual Time 7:23 AM CST 5:42 PM CST
Civil Twilight 6:55 AM CST 6:10 PM CST
Nautical Twilight 6:23 AM CST 6:42 PM CST
Astronomical Twilight 5:52 AM CST 7:13 PM CST
Moon 9:28 AM CST (2/3) 10:30 PM CST (2/3)
Length of Visible Light 11h 15m
Length of Day
10h 19m
Waxing Crescent, 20% of the Moon is Illuminated
Feb 3
Waxing Crescent
Feb 6
First Quarter
Feb 14
Full
Feb 22
Last Quarter
Mar 1
New

Hourly Weather History & Observations

Time (CST) Temp. Windchill Dew Point Humidity Pressure Visibility Wind Dir Wind Speed Gust Speed Precip Events Conditions
12:53 AM 10.0 °F 3.6 °F 3.0 °F 73% 30.35 in 10.0 mi ESE 3.5 mph - N/A   Clear
1:53 AM 9.0 °F - 3.9 °F 80% 30.35 in 10.0 mi Calm Calm - N/A   Clear
2:53 AM 9.0 °F - 3.9 °F 80% 30.37 in 10.0 mi Calm Calm - N/A   Clear
3:53 AM 9.0 °F 0.6 °F 3.0 °F 77% 30.36 in 10.0 mi SE 4.6 mph - N/A   Clear
4:53 AM 9.0 °F 0.6 °F 1.9 °F 73% 30.35 in 10.0 mi SE 4.6 mph - N/A   Clear
5:53 AM 9.0 °F 2.4 °F 1.0 °F 70% 30.34 in 10.0 mi ESE 3.5 mph - N/A   Clear
6:53 AM 7.0 °F 0.1 °F 1.9 °F 80% 30.36 in 10.0 mi SSE 3.5 mph - N/A   Clear
7:53 AM 7.0 °F 0.1 °F 1.9 °F 80% 30.37 in 9.0 mi SE 3.5 mph - N/A   Clear
8:53 AM 10.9 °F -0.8 °F 3.9 °F 73% 30.39 in 10.0 mi SSE 8.1 mph - N/A   Clear
9:53 AM 16.0 °F 6.3 °F 8.1 °F 71% 30.37 in 10.0 mi ESE 6.9 mph - N/A   Clear
10:53 AM 19.0 °F 10.0 °F 10.9 °F 71% 30.37 in 10.0 mi SE 6.9 mph - N/A   Clear
11:53 AM 23.0 °F 15.8 °F 15.1 °F 72% 30.35 in 10.0 mi SSE 5.8 mph - N/A   Clear
12:53 PM 25.0 °F 18.1 °F 17.1 °F 72% 30.32 in 10.0 mi SSE 5.8 mph - N/A   Clear
1:53 PM 28.0 °F 22.8 °F 18.0 °F 66% 30.30 in 10.0 mi South 4.6 mph - N/A   Clear
2:53 PM 30.0 °F 24.1 °F 17.1 °F 59% 30.27 in 10.0 mi ESE 5.8 mph - N/A   Clear
3:53 PM 30.9 °F 22.8 °F 16.0 °F 54% 30.26 in 10.0 mi ESE 9.2 mph - N/A   Clear
4:53 PM 30.0 °F 22.4 °F 17.1 °F 59% 30.25 in 10.0 mi East 8.1 mph - N/A   Clear
5:53 PM 28.0 °F 20.0 °F 16.0 °F 61% 30.25 in 10.0 mi ESE 8.1 mph - N/A   Clear
6:53 PM 26.1 °F 18.4 °F 17.1 °F 69% 30.25 in 10.0 mi ESE 6.9 mph - N/A   Clear
7:53 PM 25.0 °F 16.3 °F 18.0 °F 75% 30.26 in 10.0 mi ESE 8.1 mph - N/A   Clear
8:53 PM 25.0 °F 16.3 °F 19.9 °F 81% 30.25 in 10.0 mi ESE 8.1 mph - N/A   Overcast
9:53 PM 25.0 °F 18.1 °F 19.9 °F 81% 30.24 in 10.0 mi East 5.8 mph - N/A   Overcast
10:53 PM 25.0 °F 17.1 °F 19.0 °F 78% 30.24 in 10.0 mi East 6.9 mph - N/A   Overcast
11:53 PM 26.1 °F 16.8 °F 19.0 °F 75% 30.23 in 10.0 mi East 9.2 mph - N/A   Overcast